{"data":{"norad_id":66140,"epoch":"2026-05-25T02:59:38.643648Z","epoch_age_seconds":67817,"freshness":"FRESH","line1":"1 66140U 25237AC  26145.12475282  .00017195  00000+0  59114-3 0  9990","line2":"2 66140  53.1594  44.5448 0001198  81.7708 278.3429 15.30210969 34317","mean_motion":15.30210969,"eccentricity":0.0001198,"inclination_deg":53.1594,"raan_deg":44.5448,"arg_perigee_deg":81.7708,"mean_anomaly_deg":278.3429,"bstar":0.00059114,"rev_number":3431,"period_min":94.104671131788,"perigee_km":474.36129050383,"apogee_km":476.00334581246,"semimajor_km":6853.3193181581,"source":"CELESTRAK","updated_at":"2026-05-25T13:38:21.067682Z"}}